Location: Waldport
(44.4270°N, 124.0680°W)
Time: 04:33:47
(UTC-07:00)

Amateur Radio Satellites - All Passes

Search period start: 26 April 2015 04:03
Search period end: 27 April 2015 04:03
Location: Waldport, 44.4270°N, 124.0680°W

Satellite Date Start Highest point End Downlink Frequencies (MHz)
Time Altitude Azimuth
KKS-1 26 Apr 04:08:07 04:11:53 26° 266° (W) 04:15:35 437.445
Cosmos 2499 26 Apr 04:15:33 04:19:07 14° 52° (NE) 04:23:00 435.465 / 435.565
AIST 2 26 Apr 04:21:02 04:25:16 71° 123° (ESE) 04:29:34 435.215
JAS-2 26 Apr 04:24:54 04:29:59 26° 89° (E) 04:34:44 435.910
Oscar 19 26 Apr 04:27:12 04:30:43 18° 299° (WNW) 04:34:04 437.125/150
CUSAT 1 26 Apr 04:32:50 04:40:23 75° 78° (ENE) 04:48:46 437.405
MOZHAYETS 4 26 Apr 04:37:23 04:41:49 46° 72° (ENE) 04:46:17
HORYU 2 26 Apr 04:41:41 04:46:03 48° 99° (E) 04:50:24 437.375
BEESAT 3 26 Apr 04:55:14 04:58:22 20° 320° (NW) 05:01:28 437.485
BEESAT 2 26 Apr 04:57:01 05:00:20 22° 319° (NW) 05:03:38 435.950
ITAMSAT 1 26 Apr 05:02:20 05:06:35 25° 296° (WNW) 05:10:43 435.822/435.867
STARS 26 Apr 05:04:14 05:05:47 11° 273° (W) 05:07:04 437.465
DANDE 26 Apr 05:15:22 05:22:46 75° 262° (W) 05:31:17 436.750
M-CUBED/EXP-1 PRIME 26 Apr 05:27:10 05:31:11 28° 61° (ENE) 05:35:17 437.505
Gurwin Techsat 1B 26 Apr 05:35:55 05:39:14 16° 300° (WNW) 05:42:22 435.225
GONETS M04 26 Apr 05:43:02 05:50:56 37° 274° (W) 05:58:37
AO-7 26 Apr 05:52:51 06:01:14 88° 289° (WNW) 06:09:36 29.400- 29.500
AIST 2 26 Apr 06:01:18 06:04:22 18° 322° (NW) 06:07:22 435.215
Cosmos 2499 26 Apr 06:06:26 06:14:18 69° 78° (ENE) 06:21:34 435.465 / 435.565
AUBIESAT-1 26 Apr 06:08:14 06:12:56 57° 67° (ENE) 06:17:38 437.475
JAS-2 26 Apr 06:09:19 06:15:35 52° 291° (WNW) 06:21:06 435.910
CUBESAT XI-V 26 Apr 06:15:34 06:19:51 39° 70° (ENE) 06:24:10 437.345
MOZHAYETS 4 26 Apr 06:15:52 06:19:19 20° 269° (W) 06:22:40
CUSAT 1 26 Apr 06:16:32 06:22:43 26° 273° (W) 06:29:05 437.405
CUTE-I 26 Apr 06:17:41 06:19:59 13° 86° (E) 06:22:36 437.470
HORYU 2 26 Apr 06:19:08 06:22:24 20° 296° (WNW) 06:25:32 437.375
Cubesat XI-IV 26 Apr 06:26:48 06:29:59 16° 88° (E) 06:33:24 437.490
PRISM 26 Apr 06:33:53 06:37:43 37° 70° (ENE) 06:41:34 437.425
STRAND 1 26 Apr 06:35:28 06:40:01 35° 68° (ENE) 06:44:39 437.568
DANDE 26 Apr 07:00:46 07:05:23 16° 276° (W) 07:09:49 436.750
M-CUBED/EXP-1 PRIME 26 Apr 07:01:17 07:05:51 41° 258° (WSW) 07:10:25 437.505
O/OREOS (USA 219) 26 Apr 07:22:20 07:25:33 19° 51° (NE) 07:28:50 437.305
AUBIESAT-1 26 Apr 07:44:37 07:48:02 19° 265° (W) 07:51:20 437.475
AO-7 26 Apr 07:46:50 07:53:06 24° 309° (NW) 07:59:09 29.400- 29.500
CUBESAT XI-V 26 Apr 07:53:45 07:57:28 23° 268° (W) 08:01:05 437.345
PCSat 26 Apr 07:55:27 07:59:28 22° 108° (ESE) 08:03:39 145.827
CUTE-I 26 Apr 07:55:31 08:00:52 84° 287° (WNW) 08:06:12 437.470
Cosmos 2499 26 Apr 08:00:47 08:06:41 23° 279° (W) 08:12:02 435.465 / 435.565
Cubesat XI-IV 26 Apr 08:05:23 08:10:42 69° 288° (WNW) 08:15:59 437.490
PRISM 26 Apr 08:10:11 08:13:20 20° 267° (W) 08:16:23 437.425
STRAND 1 26 Apr 08:14:43 08:19:15 31° 265° (W) 08:23:46 437.568
HO-68 26 Apr 08:51:29 08:56:39 22° 89° (E) 09:02:02 435.675
O/OREOS (USA 219) 26 Apr 09:00:57 09:05:21 53° 251° (WSW) 09:09:41 437.305
GOMX 1 26 Apr 09:06:07 09:10:34 30° 94° (E) 09:15:17 467.674
COMPASS 1 26 Apr 09:14:08 09:16:17 14° 88° (E) 09:18:35 437.405
BRITE-PL 26 Apr 09:21:45 09:26:48 59° 100° (E) 09:32:12 437.365/2234.400
Cosmos 2491 26 Apr 09:22:33 09:30:24 35° 67° (ENE) 09:38:23 435.465 / 435.565
ANTELSAT 26 Apr 09:25:13 09:26:04 11° 59° (ENE) 09:27:10 437.575/2403.000
PCSat 26 Apr 09:37:11 09:42:31 58° 306° (NW) 09:47:54 145.827
CUTE-I 26 Apr 09:37:39 09:40:14 13° 303° (WNW) 09:42:34 437.470
DOVE 4 26 Apr 09:39:05 09:43:54 40° 97° (E) 09:48:53 437.250
SEEDS 26 Apr 09:39:31 09:43:20 32° 95° (E) 09:47:09 437.485
Cubesat XI-IV 26 Apr 09:48:26 09:49:57 11° 305° (NW) 09:51:12 437.490
CANX-2 26 Apr 09:48:56 09:53:09 54° 99° (E) 09:57:19 2200.000
AAUSAT CUBESAT 2 26 Apr 09:54:54 09:58:42 33° 96° (E) 10:02:29 437.432
BEESAT 3 26 Apr 09:57:13 09:58:28 11° 31° (NNE) 09:59:51 437.485
CUTE 1.7 + AOD 2 26 Apr 09:57:56 10:02:12 62° 101° (E) 10:06:24 437.475
BEESAT 2 26 Apr 09:59:54 10:00:43 11° 29° (NNE) 10:01:40 435.950
NANOSAT C BR1 26 Apr 10:06:44 10:08:19 12° 62° (ENE) 10:10:05 145.865
POPSAT HIP 1 26 Apr 10:09:54 10:11:49 13° 62° (ENE) 10:13:55 437.405
TIGRISAT 26 Apr 10:11:40 10:15:30 28° 67° (ENE) 10:19:30 435.000
CUBEBUG 2 26 Apr 10:12:59 10:16:50 24° 92° (E) 10:20:44 437.445
UNISAT 6 26 Apr 10:16:08 10:20:08 32° 68° (ENE) 10:24:17 437.425
CINEMA 3 26 Apr 10:18:06 10:22:56 50° 98° (E) 10:27:50 145.822/145.860
BUGSAT 1 26 Apr 10:30:20 10:32:25 14° 63° (ENE) 10:34:39 437.445
YUBILEINY 26 Apr 10:30:26 10:38:02 35° 85° (E) 10:45:49 435.215
UWE-3 26 Apr 10:37:16 10:41:32 34° 95° (E) 10:45:48 435.000/436.395/437.385
HO-68 26 Apr 10:37:59 10:45:12 76° 289° (WNW) 10:52:21 435.675
POLYITAN 1 26 Apr 10:38:15 10:41:42 25° 67° (ENE) 10:45:16 437.675
DUCHIFAT 1 26 Apr 10:38:24 10:41:46 24° 67° (ENE) 10:45:15 145.980
GOMX 1 26 Apr 10:44:01 10:48:46 39° 290° (WNW) 10:53:42 467.674
FUNcube-1 26 Apr 10:44:54 10:49:00 31° 95° (E) 10:53:06 145.935
COMPASS 1 26 Apr 10:48:15 10:52:23 55° 287° (WNW) 10:56:27 437.405
UKube-1 26 Apr 10:49:45 10:52:48 19° 92° (E) 10:55:58 .
QB50P1 26 Apr 10:55:50 10:59:42 37° 70° (ENE) 11:03:39 145.935-145.965
ANTELSAT 26 Apr 10:57:34 11:02:07 81° 74° (ENE) 11:06:48 437.575/2403.000
HUMSAT D 26 Apr 10:59:54 11:03:15 22° 92° (E) 11:06:40 437.325/437.525
DELFI C3 26 Apr 11:00:28 11:04:30 61° 101° (E) 11:08:28 145.870
BRITE-PL 26 Apr 11:01:15 11:05:00 21° 295° (WNW) 11:08:47 437.365/2234.400
AIST 2 26 Apr 11:04:03 11:06:19 14° 33° (NNE) 11:08:39 435.215
Oscar 11 26 Apr 11:08:00 11:12:23 85° 284° (WNW) 11:16:43 145.826/435.025
ZACube-1 26 Apr 11:10:19 11:14:54 58° 100° (E) 11:19:26 437.345
SEEDS 26 Apr 11:15:32 11:19:02 24° 292° (WNW) 11:22:26 437.485
DOVE 4 26 Apr 11:17:09 11:21:31 29° 293° (WNW) 11:25:55 437.250
VELOX 1 26 Apr 11:17:55 11:21:05 19° 92° (E) 11:24:22 145.980
Cosmos 2491 26 Apr 11:19:11 11:27:46 57° 269° (W) 11:36:17 435.465 / 435.565
QB50P2 26 Apr 11:21:50 11:26:02 74° 75° (ENE) 11:30:18 145.880/145.840
CUBEBUG 1 26 Apr 11:23:14 11:23:40 10° 86° (E) 11:24:22 437.445
PCSat 26 Apr 11:24:18 11:27:12 14° 328° (NNW) 11:29:57 145.827
CANX-2 26 Apr 11:26:00 11:28:41 16° 296° (WNW) 11:31:14 2200.000
AAUSAT CUBESAT 2 26 Apr 11:30:48 11:34:11 23° 293° (WNW) 11:37:28 437.432
BEESAT 3 26 Apr 11:33:20 11:37:25 58° 52° (NE) 11:41:25 437.485
CUTE 1.7 + AOD 2 26 Apr 11:35:16 11:37:40 14° 297° (WNW) 11:39:53 437.475
AISAT 26 Apr 11:35:36 11:39:31 30° 96° (E) 11:43:30 437.250
BEESAT 2 26 Apr 11:35:47 11:39:51 52° 51° (NE) 11:43:51 435.950
SO-50 26 Apr 11:37:01 11:41:09 33° 116° (ESE) 11:45:28 436.795
NANOSAT C BR1 26 Apr 11:39:26 11:43:38 74° 258° (WSW) 11:47:53 145.865
DX 1 26 Apr 11:42:55 11:47:18 74° 103° (ESE) 11:51:39 434.975-435.025
POPSAT HIP 1 26 Apr 11:43:02 11:47:13 67° 259° (WSW) 11:51:27 437.405
50 SAT 26 Apr 11:43:32 11:47:20 38° 97° (E) 11:51:06 437.505
TIGRISAT 26 Apr 11:48:04 11:52:11 33° 265° (W) 11:56:21 435.000
CUBEBUG 2 26 Apr 11:49:11 11:53:40 40° 290° (WNW) 11:58:06 437.445
AIST 1 26 Apr 11:51:43 11:55:45 40° 76° (ENE) 11:59:48
UNISAT 6 26 Apr 11:52:57 11:56:56 29° 266° (W) 12:00:56 437.425
CINEMA 3 26 Apr 11:55:57 11:59:50 23° 295° (WNW) 12:03:39 145.822/145.860
BUGSAT 1 26 Apr 12:03:33 12:07:30 55° 260° (W) 12:11:28 437.445
DUCHIFAT 1 26 Apr 12:13:43 12:17:29 31° 264° (W) 12:21:16 145.980
POLYITAN 1 26 Apr 12:13:46 12:17:32 31° 264° (W) 12:21:19 437.675
UWE-3 26 Apr 12:13:56 12:17:58 28° 292° (WNW) 12:21:56 435.000/436.395/437.385
ESTCUBE 1 26 Apr 12:17:09 12:21:28 45° 98° (E) 12:25:47 437.505/2401.250
FUNcube-1 26 Apr 12:21:16 12:25:16 29° 292° (WNW) 12:29:11 145.935
UKube-1 26 Apr 12:25:04 12:29:11 42° 289° (WNW) 12:33:16 .
YUBILEINY 26 Apr 12:25:55 12:34:34 55° 286° (WNW) 12:43:11 435.215
HO-68 26 Apr 12:27:23 12:31:55 18° 308° (NW) 12:36:10 435.675
Oscar 19 26 Apr 12:28:19 12:31:30 17° 60° (ENE) 12:34:51 437.125/150
QB50P1 26 Apr 12:32:32 12:35:45 20° 268° (W) 12:38:53 145.935-145.965
Cosmos 2504 26 Apr 12:35:03 12:41:08 22° 80° (E) 12:47:31 435.465 / 435.565
HUMSAT D 26 Apr 12:35:07 12:39:09 37° 290° (WNW) 12:43:06 437.325/437.525
ISS 26 Apr 12:35:57 12:39:08 57° 145° (SE) 12:42:22 145.825
DELFI C3 26 Apr 12:37:13 12:39:11 13° 297° (WNW) 12:40:59 145.870
ANTELSAT 26 Apr 12:38:13 12:39:39 11° 275° (W) 12:40:47 437.575/2403.000
SPROUT 26 Apr 12:38:20 12:41:22 19° 91° (E) 12:44:32 437.525
AIST 2 26 Apr 12:41:23 12:45:40 78° 54° (NE) 12:49:51 435.215
ZACube-1 26 Apr 12:47:47 12:50:51 17° 296° (WNW) 12:53:44 437.345
VELOX 1 26 Apr 12:53:40 12:57:54 43° 289° (WNW) 13:02:06 145.980
CUBEBUG 1 26 Apr 12:56:18 13:00:41 80° 283° (WNW) 13:05:04 437.445
QB50P2 26 Apr 13:01:38 13:02:34 10° 274° (W) 13:03:14 145.880/145.840
ITAMSAT 1 26 Apr 13:06:18 13:08:18 13° 57° (ENE) 13:10:33 435.822/435.867
RS-15 26 Apr 13:07:49 13:14:07 19° 100° (E) 13:21:10 29.354- 29.394
AISAT 26 Apr 13:12:13 13:16:04 28° 292° (WNW) 13:19:52 437.250
BEESAT 3 26 Apr 13:12:36 13:15:01 15° 249° (WSW) 13:17:17 437.485
BEESAT 2 26 Apr 13:14:50 13:17:36 17° 248° (WSW) 13:20:13 435.950
SO-50 26 Apr 13:17:16 13:21:39 37° 315° (NW) 13:26:11 436.795
50 SAT 26 Apr 13:18:56 13:21:54 19° 294° (WNW) 13:24:46 437.505
DX 1 26 Apr 13:20:58 13:23:01 13° 299° (WNW) 13:24:54 434.975-435.025
AIST 1 26 Apr 13:30:12 13:33:08 18° 273° (W) 13:35:55
Gurwin Techsat 1B 26 Apr 13:39:13 13:43:04 21° 62° (ENE) 13:47:04 435.225
TISAT 1 26 Apr 13:39:20 13:43:35 66° 101° (ESE) 13:47:49 437.305
ESTCUBE 1 26 Apr 13:54:44 13:58:04 20° 295° (WNW) 14:01:18 437.505/2401.250
Oscar 19 26 Apr 14:05:10 14:10:20 72° 258° (WSW) 14:15:32 437.125/150
ITUPSAT 1 26 Apr 14:10:57 14:14:41 23° 92° (E) 14:18:31 437.325
ISS 26 Apr 14:12:41 14:15:39 31° 343° (NNW) 14:18:38 145.825
SPROUT 26 Apr 14:13:35 14:17:42 42° 289° (WNW) 14:21:47 437.525
AIST 2 26 Apr 14:22:06 14:23:41 12° 251° (WSW) 14:25:04 435.215
Cosmos 2504 26 Apr 14:24:44 14:33:39 86° 279° (W) 14:42:27 435.465 / 435.565
YUBILEINY 26 Apr 14:30:38 14:34:03 12° 312° (NW) 14:36:52 435.215
JAS-2 26 Apr 14:38:28 14:43:40 21° 57° (ENE) 14:48:57 435.910
BEESAT 26 Apr 14:40:38 14:45:12 45° 99° (E) 14:49:46 436.000
ITAMSAT 1 26 Apr 14:41:54 14:47:05 82° 75° (ENE) 14:52:18 435.822/435.867
SWISSCUBE 26 Apr 14:43:15 14:47:55 52° 100° (E) 14:52:34 437.505
GONETS M04 26 Apr 15:01:24 15:01:52 10° 72° (ENE) 15:03:06
AO-7 26 Apr 15:02:12 15:09:24 36° 58° (ENE) 15:16:45 29.400- 29.500
SO-50 26 Apr 15:02:28 15:03:40 11° 338° (NNW) 15:04:45 436.795
RS-15 26 Apr 15:13:57 15:24:46 78° 121° (ESE) 15:35:54 29.354- 29.394
STARS 26 Apr 15:14:29 15:16:09 12° 88° (E) 15:18:04 437.465
TISAT 1 26 Apr 15:16:43 15:18:54 14° 298° (WNW) 15:20:57 437.305
Gurwin Techsat 1B 26 Apr 15:17:27 15:22:41 58° 260° (W) 15:27:57 435.225
HORYU 2 26 Apr 15:41:23 15:45:46 54° 72° (ENE) 15:50:12 437.375
ITUPSAT 1 26 Apr 15:48:17 15:52:47 41° 290° (WNW) 15:57:14 437.325
ISS 26 Apr 15:50:00 15:52:39 22° 3° (N) 15:55:19 145.825
KKS-1 26 Apr 15:56:38 16:01:03 52° 100° (E) 16:05:27 437.445
BEESAT 26 Apr 16:19:05 16:22:48 22° 296° (WNW) 16:26:23 436.000
JAS-2 26 Apr 16:19:57 16:27:50 83° 75° (ENE) 16:35:25 435.910
SWISSCUBE 26 Apr 16:21:59 16:25:26 20° 297° (WNW) 16:28:46 437.505
Cosmos 2504 26 Apr 16:22:00 16:28:31 21° 301° (WNW) 16:34:35 435.465 / 435.565
ITAMSAT 1 26 Apr 16:24:48 16:27:20 13° 273° (W) 16:29:35 435.822/435.867
PCSat 26 Apr 16:40:24 16:45:06 29° 45° (NE) 16:49:51 145.827
GONETS M04 26 Apr 16:48:27 16:56:55 58° 91° (E) 17:05:32
STARS 26 Apr 16:48:44 16:53:11 70° 286° (WNW) 16:57:37 437.465
DANDE 26 Apr 16:51:46 16:52:30 11° 79° (E) 16:53:31 436.750
AO-7 26 Apr 16:53:43 17:01:53 60° 257° (WSW) 17:10:04 29.400- 29.500
Cosmos 2499 26 Apr 16:59:05 16:59:58 10° 73° (ENE) 17:01:37 435.465 / 435.565
VERMONT LUNAR 26 Apr 17:04:36 17:07:14 21° 159° (SSE) 17:09:54 437.305
HORYU 2 26 Apr 17:19:57 17:22:49 16° 270° (W) 17:25:31 437.375
ISS 26 Apr 17:26:25 17:29:34 44° 23° (NNE) 17:32:42 145.825
RS-15 26 Apr 17:28:08 17:38:18 40° 328° (NNW) 17:48:43 29.354- 29.394
KKS-1 26 Apr 17:34:15 17:37:20 18° 296° (WNW) 17:40:18 437.445
CUTE-I 26 Apr 17:40:23 17:44:44 27° 65° (ENE) 17:49:12 437.470
PHONESAT 2.4 26 Apr 17:43:58 17:46:29 18° 156° (SSE) 17:49:03 2401.200-2431.200
CUSAT 1 26 Apr 17:44:06 17:47:48 64° 96° (E) 17:52:49 437.405
Cubesat XI-IV 26 Apr 17:49:59 17:54:39 33° 66° (ENE) 17:59:24 437.490
JAS-2 26 Apr 18:07:42 18:13:40 22° 273° (W) 18:19:12 435.910
MOZHAYETS 4 26 Apr 18:07:45 18:12:23 88° 109° (ESE) 18:16:57
PCSat 26 Apr 18:23:33 18:28:48 50° 245° (WSW) 18:34:00 145.827
SO-50 26 Apr 18:27:12 18:29:29 13° 27° (NNE) 18:31:54 436.795
DANDE 26 Apr 18:31:17 18:34:45 53° 286° (WNW) 18:39:24 436.750
VERMONT LUNAR 26 Apr 18:41:06 18:44:19 41° 175° (S) 18:47:31 437.305
Cosmos 2499 26 Apr 18:43:01 18:51:34 56° 92° (E) 18:59:55 435.465 / 435.565
M-CUBED/EXP-1 PRIME 26 Apr 18:43:35 18:45:20 13° 92° (E) 18:47:12 437.505
GONETS M04 26 Apr 18:46:24 18:54:18 35° 293° (WNW) 19:02:07
AO-7 26 Apr 18:55:06 18:56:45 10° 279° (W) 18:57:38 29.400- 29.500
ISS 26 Apr 19:02:55 19:05:51 30° 221° (SW) 19:08:45 145.825
CUTE-I 26 Apr 19:19:34 19:24:38 44° 262° (W) 19:29:43 437.470
PHONESAT 2.4 26 Apr 19:20:52 19:24:14 40° 172° (S) 19:27:39 2401.200-2431.200
HO-68 26 Apr 19:22:48 19:27:51 22° 55° (NE) 19:33:08 435.675
AUBIESAT-1 26 Apr 19:23:27 19:27:07 30° 100° (E) 19:30:31 437.475
CUSAT 1 26 Apr 19:29:22 19:31:38 13° 306° (NW) 19:33:58 437.405
Cubesat XI-IV 26 Apr 19:29:50 19:34:43 36° 264° (W) 19:39:36 437.490
RS-15 26 Apr 19:45:48 19:54:45 26° 1° (N) 20:04:02 29.354- 29.394
MOZHAYETS 4 26 Apr 19:47:17 19:48:58 12° 300° (WNW) 19:50:26
CUBESAT XI-V 26 Apr 19:47:27 19:52:06 79° 104° (ESE) 19:56:42 437.345
PRISM 26 Apr 19:49:43 19:53:42 48° 100° (E) 19:57:40 437.425
SO-50 26 Apr 20:06:24 20:11:14 50° 49° (NE) 20:16:03 436.795
COMPASS 1 26 Apr 20:07:45 20:09:44 13° 63° (ENE) 20:11:54 437.405
M-CUBED/EXP-1 PRIME 26 Apr 20:16:35 20:20:47 59° 292° (WNW) 20:24:36 437.505
GOMX 1 26 Apr 20:16:43 20:20:26 31° 68° (ENE) 20:24:24 467.674
VERMONT LUNAR 26 Apr 20:18:21 20:21:28 34° 192° (SSW) 20:24:34 437.305
STRAND 1 26 Apr 20:22:41 20:27:49 77° 103° (ESE) 20:32:55 437.568
Oscar 11 26 Apr 20:32:00 20:32:53 11° 60° (ENE) 20:33:59 145.826/435.025
SEEDS 26 Apr 20:33:17 20:36:57 29° 69° (ENE) 20:40:41 437.485
BRITE-PL 26 Apr 20:35:07 20:39:16 75° 75° (ENE) 20:43:37 437.365/2234.400
Cosmos 2499 26 Apr 20:37:03 20:45:08 37° 292° (WNW) 20:52:50 435.465 / 435.565
YUBILEINY 26 Apr 20:38:23 20:44:04 19° 56° (ENE) 20:50:06 435.215
CANX-2 26 Apr 20:43:18 20:47:26 48° 72° (ENE) 20:51:37 2200.000
DOVE 4 26 Apr 20:46:51 20:50:54 42° 71° (ENE) 20:55:12 437.250
AAUSAT CUBESAT 2 26 Apr 20:47:27 20:51:04 29° 69° (ENE) 20:54:44 437.432
CUTE 1.7 + AOD 2 26 Apr 20:52:10 20:56:22 54° 73° (ENE) 21:00:36 437.475
AUBIESAT-1 26 Apr 20:58:20 21:01:49 25° 299° (WNW) 21:05:00 437.475
PHONESAT 2.4 26 Apr 20:58:48 21:02:11 40° 189° (S) 21:05:35 2401.200-2431.200
HO-68 26 Apr 21:07:36 21:14:49 87° 253° (WSW) 21:22:05 435.675
CUBEBUG 2 26 Apr 21:13:12 21:16:42 24° 66° (ENE) 21:20:23 437.445
CINEMA 3 26 Apr 21:21:38 21:25:52 51° 72° (ENE) 21:30:21 145.822/145.860
PRISM 26 Apr 21:26:11 21:28:51 17° 296° (WNW) 21:31:22 437.425
CUBESAT XI-V 26 Apr 21:26:46 21:28:58 13° 299° (WNW) 21:30:58 437.345
UWE-3 26 Apr 21:36:10 21:40:04 32° 69° (ENE) 21:44:08 435.000/436.395/437.385
O/OREOS (USA 219) 26 Apr 21:37:42 21:40:02 14° 100° (E) 21:42:34 437.305
COMPASS 1 26 Apr 21:40:44 21:44:57 66° 259° (W) 21:49:12 437.405
FUNcube-1 26 Apr 21:42:24 21:46:12 30° 68° (ENE) 21:50:08 145.935
UKube-1 26 Apr 21:46:26 21:49:38 21° 65° (ENE) 21:52:57 .
SO-50 26 Apr 21:47:29 21:51:33 25° 246° (WSW) 21:55:28 436.795
DELFI C3 26 Apr 21:49:26 21:53:21 46° 73° (ENE) 21:57:18 145.870
HUMSAT D 26 Apr 21:53:45 21:56:49 20° 66° (ENE) 22:00:01 437.325/437.525
GOMX 1 26 Apr 21:55:08 21:58:41 25° 268° (W) 22:02:18 467.674
VERMONT LUNAR 26 Apr 21:56:40 21:58:23 13° 207° (SSW) 22:00:02 437.305
RS-15 26 Apr 22:00:34 22:11:10 42° 34° (NE) 22:22:19 29.354- 29.394
STRAND 1 26 Apr 22:03:23 22:06:28 16° 300° (WNW) 22:09:21 437.568
Oscar 11 26 Apr 22:04:04 22:08:26 90° 252° (WSW) 22:12:50 145.826/435.025
ZACube-1 26 Apr 22:07:47 22:12:03 55° 72° (ENE) 22:16:27 437.345
SEEDS 26 Apr 22:09:03 22:12:45 27° 266° (W) 22:16:25 437.485
VELOX 1 26 Apr 22:17:23 22:20:43 22° 66° (ENE) 22:24:11 145.980
CANX-2 26 Apr 22:20:48 22:23:41 17° 270° (W) 22:26:25 2200.000
CUBEBUG 1 26 Apr 22:20:53 22:22:26 12° 61° (ENE) 22:24:10 437.445
AAUSAT CUBESAT 2 26 Apr 22:23:02 22:26:40 27° 266° (W) 22:30:16 437.432
DOVE 4 26 Apr 22:25:53 22:29:00 19° 270° (W) 22:32:07 437.250
Cosmos 2491 26 Apr 22:26:18 22:33:56 37° 86° (E) 22:41:47 435.465 / 435.565
CUTE 1.7 + AOD 2 26 Apr 22:30:08 22:32:41 15° 271° (W) 22:35:05 437.475
50 SAT 26 Apr 22:30:35 22:34:02 28° 69° (ENE) 22:37:34 437.505
YUBILEINY 26 Apr 22:33:47 22:42:36 82° 80° (E) 22:51:19 435.215
AISAT 26 Apr 22:35:07 22:39:03 34° 69° (ENE) 22:43:03 437.250
PHONESAT 2.4 26 Apr 22:37:24 22:39:57 18° 204° (SSW) 22:42:28 2401.200-2431.200
DX 1 26 Apr 22:39:58 22:44:17 79° 75° (ENE) 22:48:38 434.975-435.025
CUBEBUG 2 26 Apr 22:49:07 22:53:13 37° 264° (W) 22:57:26 437.445
ANTELSAT 26 Apr 22:49:16 22:52:07 16° 89° (E) 22:55:08 437.575/2403.000
HO-68 26 Apr 22:59:15 23:03:43 16° 274° (W) 23:07:47 435.675
CINEMA 3 26 Apr 23:00:36 23:03:30 17° 272° (W) 23:06:20 145.822/145.860
QB50P2 26 Apr 23:08:02 23:09:05 11° 87° (E) 23:10:24 145.880/145.840
UWE-3 26 Apr 23:12:55 23:16:39 26° 267° (W) 23:20:26 435.000/436.395/437.385
O/OREOS (USA 219) 26 Apr 23:14:27 23:19:00 63° 296° (WNW) 23:23:33 437.305
ESTCUBE 1 26 Apr 23:18:18 23:22:39 51° 72° (ENE) 23:27:03 437.505/2401.250
FUNcube-1 26 Apr 23:18:44 23:22:32 28° 266° (W) 23:26:22 145.935
UKube-1 26 Apr 23:21:29 23:25:34 39° 262° (W) 23:29:38 .
NANOSAT C BR1 26 Apr 23:23:52 23:26:30 16° 90° (E) 23:29:18 145.865
DELFI C3 26 Apr 23:26:14 23:28:48 16° 270° (W) 23:31:12 145.870
POPSAT HIP 1 26 Apr 23:27:31 23:30:23 18° 91° (E) 23:33:24 437.405
HUMSAT D 26 Apr 23:28:17 23:32:19 41° 263° (W) 23:36:24 437.325/437.525
SPROUT 26 Apr 23:34:32 23:37:30 19° 65° (ENE) 23:40:35 437.525
TIGRISAT 26 Apr 23:37:38 23:42:12 47° 98° (E) 23:46:42 435.000
UNISAT 6 26 Apr 23:42:32 23:47:10 54° 99° (E) 23:51:45 437.425
BUGSAT 1 26 Apr 23:44:46 23:47:39 18° 92° (E) 23:50:40 437.445
ZACube-1 26 Apr 23:46:09 23:48:51 15° 272° (W) 23:51:25 437.345
VELOX 1 26 Apr 23:52:58 23:57:06 39° 263° (W) 00:01:14 145.980
CUBEBUG 1 26 Apr 23:53:56 23:58:15 78° 257° (WSW) 00:02:36 437.445
DUCHIFAT 1 26 Apr 23:56:26 00:00:21 35° 96° (E) 00:04:18 145.980
POLYITAN 1 26 Apr 23:57:06 00:01:07 37° 97° (E) 00:05:09 437.675
50 SAT 27 Apr 00:05:30 00:08:51 24° 266° (W) 00:12:10 437.505
AISAT 27 Apr 00:12:05 00:15:44 25° 266° (W) 00:19:19 437.250
RS-15 27 Apr 00:13:13 00:24:44 77° 240° (WSW) 00:36:43 29.354- 29.394
QB50P1 27 Apr 00:14:40 00:18:54 56° 100° (E) 00:23:08 145.935-145.965
Cosmos 2504 27 Apr 00:16:36 00:24:00 39° 69° (ENE) 00:31:00 435.465 / 435.565
DX 1 27 Apr 00:20:38 00:21:12 10° 273° (W) 00:21:29 434.975-435.025
Cosmos 2491 27 Apr 00:22:05 00:30:35 52° 286° (WNW) 00:39:07 435.465 / 435.565
AIST 1 27 Apr 00:23:35 00:26:53 23° 89° (E) 00:30:17
ANTELSAT 27 Apr 00:24:42 00:29:21 58° 287° (WNW) 00:33:55 437.575/2403.000
YUBILEINY 27 Apr 00:32:07 00:38:29 22° 280° (W) 00:44:27 435.215
TISAT 1 27 Apr 00:33:02 00:37:08 60° 73° (ENE) 00:41:18 437.305
QB50P2 27 Apr 00:41:16 00:45:35 73° 284° (WNW) 00:49:53 145.880/145.840
ESTCUBE 1 27 Apr 00:56:50 00:59:53 17° 270° (W) 01:02:46 437.505/2401.250
NANOSAT C BR1 27 Apr 00:58:31 01:02:41 49° 288° (WNW) 01:06:49 145.865
POPSAT HIP 1 27 Apr 01:02:25 01:06:32 45° 289° (WNW) 01:10:38 437.405
SPROUT 27 Apr 01:09:13 01:13:19 44° 262° (W) 01:17:26 437.525
TIGRISAT 27 Apr 01:15:04 01:18:39 21° 295° (WNW) 01:22:06 435.000
ITUPSAT 1 27 Apr 01:19:17 01:23:31 33° 68° (ENE) 01:27:49 437.325
BUGSAT 1 27 Apr 01:19:25 01:23:20 40° 289° (WNW) 01:27:15 437.445
UNISAT 6 27 Apr 01:20:14 01:23:35 19° 297° (WNW) 01:26:45 437.425
DUCHIFAT 1 27 Apr 01:32:35 01:36:02 23° 293° (WNW) 01:39:23 145.980
POLYITAN 1 27 Apr 01:33:27 01:36:52 22° 294° (WNW) 01:40:11 437.675
BEESAT 27 Apr 01:48:35 01:53:18 63° 73° (ENE) 01:58:04 436.000
SWISSCUBE 27 Apr 01:51:19 01:56:05 73° 74° (ENE) 02:00:53 437.505
QB50P1 27 Apr 01:51:45 01:54:22 16° 297° (WNW) 01:56:53 145.935-145.965
AIST 1 27 Apr 02:00:32 02:04:25 32° 286° (WNW) 02:08:16
Cosmos 2504 27 Apr 02:10:03 02:17:34 45° 272° (W) 02:24:32 435.465 / 435.565
TISAT 1 27 Apr 02:11:25 02:13:24 13° 272° (W) 02:15:12 437.305
STARS 27 Apr 02:13:09 02:15:29 15° 62° (ENE) 02:17:59 437.465
Oscar 19 27 Apr 02:15:16 02:20:01 36° 96° (E) 02:24:48 437.125/150
Cosmos 2491 27 Apr 02:27:35 02:30:15 11° 313° (NW) 02:32:18 435.465 / 435.565
RS-15 27 Apr 02:27:48 02:35:37 20° 259° (W) 02:42:50 29.354- 29.394
CUSAT 1 27 Apr 02:36:14 02:40:34 16° 57° (ENE) 02:45:34 437.405
AIST 2 27 Apr 02:44:04 02:45:03 11° 109° (ESE) 02:46:16 435.215
ITAMSAT 1 27 Apr 02:53:37 02:57:50 25° 93° (E) 03:02:07 435.822/435.867
KKS-1 27 Apr 02:56:18 03:00:39 58° 72° (ENE) 03:05:03 437.445
GONETS M04 27 Apr 02:56:46 03:04:21 32° 65° (ENE) 03:12:05
ITUPSAT 1 27 Apr 02:57:13 03:01:26 30° 265° (W) 03:05:37 437.325
BEESAT 3 27 Apr 03:05:18 03:09:20 65° 122° (ESE) 03:13:27 437.485
BEESAT 2 27 Apr 03:08:43 03:12:45 58° 121° (ESE) 03:16:51 435.950
DANDE 27 Apr 03:24:32 03:30:36 27° 65° (ENE) 03:37:36 436.750
BEESAT 27 Apr 03:28:47 03:31:40 15° 271° (W) 03:34:21 436.000
Gurwin Techsat 1B 27 Apr 03:31:52 03:37:02 50° 99° (E) 03:42:11 435.225
SWISSCUBE 27 Apr 03:32:11 03:34:34 13° 272° (W) 03:36:42 437.505
MOZHAYETS 4 27 Apr 03:37:06 03:39:02 13° 61° (ENE) 03:41:10
STARS 27 Apr 03:47:07 03:51:29 65° 258° (WSW) 03:55:53 437.465
